Temp
66 68 68 66 65 67 63 63 56 61 63 69 72 72 74 76 75 73 72 72 71 71 71 65 60 64 63 64 65 63 60 58 57 58 56 53 51 52 52 53 52 51 50 50
60 66 66 63 66 66 66 66 65 65 63 74 76 78 74 74 73 72 71 72 72 71 69 65 62 62 61 61 62 61 55 54 56 54 54 55 56 53 52 52 55 55 53 52
54 64 64 57 64 66 67 69 67 60 68 75 72 72 72 73 73 71 71 72 71 71 70 68 61 61 60 59 60 58 52 50 50 51 50 49 52 52 51 53 56 55 55 56
55 58 44 63 72 71 66 68 71 70 72 74 73 76 77 78 76 74 73 72 72 72 71 69 63 59 60 60 57 56 51 50 52 53 50 49 49 48 49 51 56 56 58 58
49 50 57 63 66 64 62 62 71 70 72 73 76 74 71 77 76 74 73 73 72 73 71 68 63 61 59 58 56 55 52 51 53 54 51 54 50 48 48 50 51 55 56 56
53 45 41 57 67 72 70 53 70 71 69 68 72 58 64 76 75 73 73 72 71 71 70 65 61 60 58 54 53 51 53 52 56 52 51 56 49 48 48 49 50 51 52 53
49 46 51 59 67 69 48 52 66 63 63 68 67 69 68 72 72 73 72 70 72 70 65 63 63 61 57 57 53 54 55 56 56 55 53 56 53 50 50 50 52 51 51 55
47 43 39 54 60 46 53 61 58 55 55 67 68 71 71 72 71 71 70 70 69 68 67 66 63 60 58 56 61 60 59 57 54 54 54 59 59 56 55 57 57 57 57 57
46 44 50 51 45 48 51 50 53 59 66 69 68 69 67 68 71 70 70 70 70 69 67 66 62 62 59 62 61 60 57 59 59 57 57 60 55 57 58 59 60 59 59 58
45 46 47 48 49 48 51 49 51 55 57 63 63 67 66 64 67 69 70 69 70 68 67 63 60 62 64 64 62 64 60 59 60 59 59 61 60 57 55 56 54 54 54 53
46 51 52 50 49 45 46 49 50 51 55 57 60 64 65 62 62 69 71 71 70 69 67 67 65 62 65 64 65 63 62 58 58 58 61 62 63 63 63 61 56 53 54 54
44 52 48 49 55 55 54 52 50 47 49 56 58 61 65 67 63 61 70 72 70 69 69 69 68 67 65 65 63 63 62 64 64 65 58 66 62 64 50 51 48 47 49 52
49 56 55 56 58 59 53 53 56 53 50 50 58 59 61 63 59 62 71 72 70 69 70 69 69 68 69 69 67 61 59 62 66 64 65 65 66 62 57 55 42 42 44 44
59 56 53 54 53 55 57 56 54 56 57 54 58 58 57 58 58 59 68 73 73 71 71 70 69 69 71 71 69 67 67 56 65 63 68 67 68 65 62 64 62 64 45 48
54 53 51 53 53 53 55 54 51 52 55 58 58 53 53 51 58 59 63 74 73 72 71 71 69 69 72 71 69 67 68 68 68 68 69 67 69 67 69 68 66 67 67 47
48 47 48 45 46 47 47 48 50 50 52 57 55 50 51 54 58 62 59 73 70 69 70 70 69 70 71 71 69 68 67 57 58 69 68 69 69 70 68 69 69 69 69 67
40 39 40 39 40 41 43 47 48 51 53 54 55 49 50 54 59 64 59 65 72 71 72 71 70 72 72 70 69 70 70 69 57 68 70 71 70 69 70 70 70 71 71 71
42 42 41 41 41 42 43 48 49 54 52 53 51 49 49 52 56 65 61 66 70 71 71 72 72 72 72 71 70 69 70 69 66 66 68 69 69 69 70 70 70 71 71 71
43 40 39 40 43 44 46 49 52 54 50 49 48 48 49 52 58 60 56 50 49 53 50 54 50 58 69 65 65 70 67 66 66 64 63 60 67 69 68 67 68 70 71 71
43 42 40 43 43 46 47 47 48 46 45 48 48 47 44 44 48 49 47 40 38 40 44 45 53 52 50 56 47 59 65 64 62 66 54 55 59 68 70 60 69 71 71 71
43 42 39 40 39 40 40 41 42 41 40 41 40 40 39 38 38 40 38 35 37 38 39 38 39 42 42 40 46 53 57 59 59 58 64 65 59 59 68 67 71 71 70 71
43 42 40 40 39 37 39 39 39 39 39 38 37 37 35 35 36 35 34 33 35 33 36 35 35 33 36 36 39 40 41 41 44 51 58 59 54 53 63 66 61 63 69 65
43 43 41 40 39 39 40 40 40 39 38 39 38 38 37 36 36 35 33 37 38 36 38 37 34 34 34 35 35 35 35 35 35 36 38 40 41 44 45 46 43 42 52 51
43 43 43 43 44 43 40 41 41 42 42 42 42 42 42 41 40 42 42 38 36 39 39 38 37 35 38 39 36 35 34 33 33 34 33 33 34 35 34 34 35 35 34 35
44 44 43 42 40 40 42 42 42 42 42 42 43 44 44 45 42 43 45 45 38 42 43 36 36 36 42 41 40 39 37 35 34 34 33 33 33 33 32 33 33 33 33 33
43 42 43 44 43 44 45 46 44 47 49 47 49 52 53 53 52 51 50 47 50 44 48 46 44 44 41 40 40 39 39 38 38 36 35 34 33 33 34 35 35 35 35 36
45 43 45 44 46 49 54 53 54 54 54 55 53 54 54 54 52 51 46 52 51 50 49 46 45 42 43 42 42 42 42 41 38 41 42 41 40 40 39 39 39 39 40 41
MSLP
1005.28 1004.75 1004.56 1004.52 1004.67 1004.52 1004.61 1004.98 1004.68 1004.15 1003.66 1003.43 1003.72 1004.56 1005.34 1006.31 1007.13 1008.08 1009.07 1009.82 1010.52 1011.20 1011.90 1013.60 1014.84 1015.12 1015.84 1016.09 1016.37 1016.81 1016.77 1017.10 1017.54 1018.04 1018.56 1018.92 1019.05 1019.09 1019.12 1019.17 1019.32 1019.40 1019.59 1019.87
1005.66 1005.10 1004.70 1004.31 1004.42 1004.40 1004.20 1004.17 1003.99 1004.08 1003.73 1003.83 1004.19 1004.48 1004.95 1005.82 1006.99 1007.75 1008.79 1009.39 1010.07 1010.88 1011.93 1013.36 1014.46 1015.09 1015.67 1016.12 1016.51 1016.97 1017.62 1017.93 1018.02 1018.35 1018.42 1018.59 1018.93 1019.28 1019.18 1019.09 1019.11 1019.31 1019.53 1019.80
1005.31 1004.94 1004.23 1003.51 1003.42 1003.65 1003.53 1003.60 1003.71 1003.39 1003.17 1003.22 1003.40 1004.23 1005.10 1005.73 1006.69 1007.70 1008.44 1009.05 1009.78 1010.56 1011.40 1012.61 1014.30 1015.12 1015.64 1016.29 1016.75 1017.21 1017.87 1018.34 1018.58 1018.76 1018.96 1019.09 1019.08 1019.22 1019.07 1018.84 1018.57 1018.87 1019.04 1019.21
1005.58 1005.20 1003.92 1003.38 1003.57 1003.57 1003.46 1003.45 1002.90 1002.76 1002.83 1003.20 1003.37 1003.68 1004.24 1005.00 1005.97 1006.82 1007.87 1008.80 1009.61 1010.42 1011.12 1012.36 1014.06 1015.23 1015.74 1016.37 1016.87 1017.56 1018.05 1018.36 1018.44 1018.69 1019.00 1019.26 1019.33 1019.33 1018.94 1018.80 1018.30 1018.36 1018.49 1018.65
1005.90 1005.47 1004.67 1003.73 1003.84 1004.03 1004.09 1003.75 1003.75 1003.34 1002.98 1003.47 1003.53 1003.95 1004.72 1004.95 1006.06 1006.94 1007.85 1008.77 1009.69 1010.37 1011.07 1012.37 1013.81 1014.87 1015.78 1016.30 1016.83 1017.40 1017.89 1018.07 1018.12 1018.29 1018.67 1018.70 1019.16 1019.33 1019.20 1019.12 1018.95 1018.56 1018.68 1018.91
1006.93 1006.15 1005.43 1005.11 1004.55 1004.64 1004.61 1004.25 1004.33 1004.25 1004.22 1003.88 1004.05 1004.31 1004.74 1004.33 1006.06 1007.37 1008.21 1009.17 1009.87 1010.55 1011.28 1012.76 1013.96 1014.76 1015.59 1016.27 1016.90 1017.35 1017.56 1017.73 1017.66 1017.94 1018.39 1018.33 1018.88 1019.24 1019.26 1019.43 1019.29 1019.25 1019.35 1019.52
1007.34 1007.70 1007.69 1007.17 1006.00 1006.56 1006.76 1006.44 1006.26 1006.52 1006.05 1005.26 1004.07 1004.54 1006.05 1006.48 1007.04 1007.67 1008.53 1009.38 1009.89 1010.47 1011.68 1012.58 1013.62 1014.54 1015.18 1015.66 1016.32 1016.83 1017.20 1017.40 1017.45 1017.58 1017.89 1018.03 1018.50 1018.88 1019.16 1019.16 1019.07 1019.24 1019.39 1019.35
1009.02 1009.43 1009.56 1010.16 1009.12 1010.91 1009.80 1008.36 1008.24 1008.36 1007.96 1005.76 1005.94 1005.82 1006.09 1006.72 1007.27 1007.94 1008.60 1009.35 1010.07 1010.44 1011.20 1012.27 1013.36 1014.06 1014.45 1015.05 1015.39 1015.86 1016.43 1016.73 1017.24 1017.39 1017.71 1017.36 1017.39 1017.82 1018.08 1017.81 1017.90 1018.16 1018.34 1018.55
1011.23 1011.68 1012.72 1013.08 1013.46 1013.82 1012.80 1011.70 1011.02 1009.89 1008.20 1007.43 1006.89 1006.69 1006.96 1007.17 1007.01 1007.86 1008.62 1009.11 1009.69 1010.19 1010.83 1011.86 1012.89 1013.40 1013.76 1013.94 1014.75 1015.18 1015.98 1016.10 1016.43 1016.99 1017.08 1017.01 1017.36 1017.08 1017.02 1017.22 1017.18 1017.44 1017.63 1017.87
1013.19 1013.07 1013.79 1014.30 1014.38 1014.84 1014.35 1013.78 1012.84 1012.14 1010.87 1009.34 1008.30 1007.54 1007.28 1006.97 1007.16 1007.16 1008.10 1008.69 1009.22 1009.83 1010.33 1011.41 1012.41 1012.94 1013.21 1013.59 1014.13 1014.30 1014.90 1015.40 1015.68 1016.12 1016.27 1016.29 1016.51 1016.86 1017.02 1017.07 1017.37 1017.51 1017.63 1017.79
1013.63 1013.44 1013.67 1014.00 1014.60 1015.00 1014.79 1014.59 1014.05 1013.37 1012.10 1010.83 1009.65 1008.61 1007.71 1006.82 1006.52 1006.86 1006.92 1007.95 1008.58 1009.15 1009.69 1010.25 1011.33 1012.24 1012.68 1013.24 1013.32 1013.61 1013.94 1014.73 1015.10 1015.34 1015.36 1015.28 1015.47 1015.41 1015.60 1015.86 1016.32 1016.86 1016.96 1017.05
1014.17 1014.31 1014.43 1013.97 1013.62 1013.68 1013.37 1013.58 1013.71 1013.50 1012.91 1011.66 1010.63 1009.40 1008.24 1007.10 1006.97 1007.20 1006.22 1007.09 1007.82 1008.46 1008.97 1009.44 1010.07 1010.94 1011.81 1012.38 1012.90 1012.90 1013.31 1013.33 1013.35 1013.50 1014.09 1013.71 1014.18 1014.24 1014.86 1015.15 1015.65 1016.04 1016.15 1016.35
1014.51 1014.22 1013.89 1013.63 1013.36 1012.83 1012.76 1012.81 1012.17 1012.34 1012.54 1011.86 1010.71 1009.98 1009.18 1007.77 1007.10 1006.50 1005.93 1006.17 1006.96 1007.58 1008.19 1008.76 1009.17 1009.82 1010.51 1011.08 1011.88 1012.53 1012.77 1012.75 1012.74 1012.75 1012.68 1012.68 1013.00 1013.66 1014.23 1014.76 1015.01 1015.25 1015.53 1015.86
1013.86 1013.78 1013.37 1013.17 1012.57 1012.91 1012.26 1012.15 1012.18 1011.61 1011.08 1011.14 1010.52 1010.14 1009.45 1008.33 1007.27 1006.81 1005.57 1005.24 1006.02 1006.89 1007.39 1008.01 1008.57 1008.92 1009.46 1010.15 1010.65 1011.10 1011.45 1011.77 1012.00 1012.09 1011.62 1011.83 1012.08 1012.59 1013.21 1013.25 1013.71 1014.03 1014.53 1014.96
1014.70 1014.89 1014.40 1013.57 1012.92 1012.66 1012.14 1011.89 1011.67 1011.00 1010.32 1009.67 1009.82 1009.83 1009.21 1008.36 1006.88 1006.07 1005.49 1004.59 1005.18 1006.03 1006.67 1007.22 1007.79 1008.23 1008.71 1009.12 1009.70 1010.28 1010.66 1010.79 1010.94 1011.13 1010.94 1010.90 1010.99 1011.47 1011.55 1011.50 1012.01 1012.08 1012.28 1014.05
1015.38 1015.35 1014.78 1014.29 1013.60 1012.96 1012.43 1011.75 1010.78 1010.43 1009.97 1009.03 1009.10 1009.39 1008.75 1007.96 1006.49 1005.29 1005.46 1003.97 1004.38 1005.13 1005.89 1006.54 1007.01 1007.44 1007.95 1008.47 1008.97 1009.53 1010.04 1010.26 1010.17 1010.01 1010.08 1010.11 1010.06 1009.98 1010.19 1010.20 1010.30 1010.52 1010.71 1011.64
1015.82 1015.00 1014.73 1014.11 1013.61 1012.66 1011.93 1011.35 1010.73 1009.93 1009.32 1008.67 1008.66 1009.13 1008.58 1007.63 1006.32 1004.89 1004.60 1004.43 1004.10 1004.85 1005.49 1006.00 1006.35 1006.71 1007.12 1007.66 1008.18 1008.47 1008.63 1009.01 1009.86 1009.84 1009.21 1009.03 1009.13 1009.13 1009.19 1009.06 1009.14 1009.31 1009.56 1009.62
1016.42 1015.65 1014.91 1014.04 1013.04 1012.05 1011.11 1010.60 1010.06 1009.10 1008.76 1008.56 1008.80 1008.80 1008.27 1007.50 1006.13 1004.69 1004.45 1004.24 1004.16 1004.82 1005.48 1005.64 1005.73 1005.99 1006.32 1006.74 1007.30 1007.59 1007.68 1007.91 1008.35 1008.85 1008.94 1008.56 1008.50 1008.50 1008.60 1008.53 1008.80 1008.54 1008.69 1009.03
1016.31 1015.71 1014.99 1014.03 1012.73 1011.20 1010.38 1010.05 1009.69 1009.25 1009.31 1009.07 1008.79 1008.39 1007.94 1007.27 1005.95 1005.41 1005.67 1005.31 1006.66 1006.99 1008.12 1007.82 1007.19 1006.75 1006.05 1006.06 1006.28 1006.55 1007.03 1007.50 1008.06 1008.13 1008.13 1007.89 1007.69 1007.64 1007.85 1007.99 1008.14 1008.15 1008.04 1008.24
1016.39 1015.84 1015.10 1013.93 1012.70 1011.17 1010.45 1010.53 1010.27 1010.15 1009.68 1008.90 1008.91 1008.24 1008.60 1008.10 1007.99 1007.31 1008.12 1009.40 1010.41 1011.46 1011.03 1010.32 1009.24 1008.88 1008.74 1008.00 1008.08 1007.07 1006.87 1006.80 1007.20 1006.97 1007.17 1008.09 1007.55 1006.87 1006.86 1006.67 1006.70 1006.73 1007.06 1007.26
1016.88 1016.36 1015.77 1014.92 1014.23 1013.37 1013.09 1012.67 1012.17 1011.76 1011.34 1010.72 1010.44 1010.38 1010.86 1010.95 1010.51 1010.43 1010.55 1011.71 1012.99 1012.89 1012.34 1011.90 1011.64 1011.15 1010.78 1010.07 1009.47 1008.43 1007.89 1007.50 1007.34 1007.16 1006.58 1006.68 1007.68 1007.79 1006.40 1006.00 1005.92 1006.20 1006.54 1006.68
1017.47 1017.08 1016.72 1016.14 1015.65 1015.23 1014.82 1014.28 1013.72 1013.20 1012.86 1012.87 1013.08 1012.97 1012.81 1013.07 1013.33 1013.42 1013.77 1014.53 1014.68 1014.07 1013.51 1013.48 1013.31 1012.75 1011.83 1010.84 1010.54 1010.50 1009.39 1009.21 1008.41 1007.97 1007.37 1007.22 1007.08 1007.12 1006.05 1005.44 1006.01 1006.30 1005.33 1005.99
1018.04 1017.73 1017.49 1017.11 1016.77 1016.57 1016.18 1015.71 1015.47 1015.26 1015.00 1015.00 1015.03 1015.11 1015.09 1015.23 1014.83 1014.20 1014.82 1015.81 1015.48 1015.07 1014.87 1015.02 1014.76 1013.97 1013.40 1012.97 1012.71 1012.42 1011.66 1011.04 1011.06 1010.32 1010.19 1009.97 1009.28 1008.60 1008.03 1007.95 1008.13 1008.42 1007.81 1007.11
1018.52 1018.27 1018.01 1017.79 1017.45 1017.13 1016.88 1016.89 1016.75 1016.53 1016.34 1016.29 1016.17 1016.07 1015.85 1015.61 1015.65 1015.82 1016.17 1016.39 1016.30 1016.09 1016.11 1016.02 1015.68 1014.95 1014.40 1014.13 1013.86 1013.57 1013.37 1013.22 1012.78 1012.33 1012.02 1011.85 1011.37 1010.81 1010.69 1010.48 1010.48 1010.41 1010.96 1010.82
1019.04 1018.88 1018.67 1018.43 1018.20 1018.02 1017.82 1017.79 1017.53 1017.35 1017.17 1017.03 1016.88 1016.80 1016.76 1016.68 1016.54 1016.76 1016.49 1016.57 1016.78 1016.43 1016.48 1016.68 1016.41 1016.00 1015.43 1015.13 1014.94 1014.75 1014.75 1014.70 1014.46 1014.13 1013.92 1013.59 1013.07 1012.60 1012.51 1012.52 1012.63 1012.32 1012.51 1012.99
1019.35 1019.27 1019.17 1018.99 1018.79 1018.52 1018.29 1017.99 1017.58 1017.31 1016.82 1016.70 1016.39 1016.12 1016.03 1016.06 1016.26 1016.25 1016.49 1016.55 1016.66 1016.77 1016.76 1016.95 1016.86 1016.50 1016.43 1016.30 1016.06 1015.90 1015.81 1015.54 1015.37 1015.26 1015.10 1014.90 1014.64 1014.33 1013.96 1013.96 1013.75 1013.71 1013.75 1014.14
1019.64 1019.57 1019.47 1019.38 1019.24 1018.55 1017.68 1017.16 1016.75 1016.52 1016.29 1016.26 1016.44 1016.60 1016.59 1016.61 1016.90 1016.80 1016.92 1016.85 1016.99 1017.05 1017.04 1017.29 1017.21 1017.11 1016.95 1016.80 1016.65 1016.47 1016.25 1016.07 1015.99 1015.66 1015.42 1015.25 1015.16 1015.09 1014.97 1014.90 1014.91 1014.84 1014.80 1014.93
Wind_Speed
16 17 16 14 15 16 17 17 18 16 18 13 7 4 7 9 7 8 7 7 7 6 4 6 5 4 4 3 2 4 5 6 6 6 7 6 5 5 6 6 6 6 7 6
18 17 18 19 18 20 19 18 17 18 19 16 12 12 6 5 7 8 8 8 6 5 4 6 7 6 4 4 4 5 6 6 5 7 5 2 6 5 6 8 10 10 10 9
17 19 19 18 13 19 19 19 16 18 18 14 9 8 9 9 9 9 8 7 6 6 7 7 9 5 6 6 5 6 5 4 4 1 2 1 2 5 7 8 9 11 11 11
16 18 21 13 17 13 13 17 16 18 15 15 10 7 7 10 9 8 8 7 6 6 6 6 6 6 5 6 7 6 5 4 5 5 5 5 3 1 3 4 5 8 8 9
14 16 20 18 12 12 15 15 14 17 14 14 11 7 11 7 6 5 4 5 4 3 4 5 10 6 7 8 7 6 6 6 7 7 7 9 7 4 2 3 4 3 5 4
15 20 21 15 15 12 10 13 11 16 12 12 15 7 9 4 9 7 5 5 6 6 5 5 6 8 8 8 6 6 6 7 7 10 8 6 7 6 3 3 1 2 1 2
12 13 16 20 7 9 15 6 9 13 9 18 5 3 8 3 6 6 7 7 7 6 6 9 8 9 10 10 9 8 8 8 6 3 2 9 9 6 8 8 9 9 10 9
10 12 15 25 9 6 12 12 13 3 21 7 4 4 2 4 5 8 9 9 8 8 9 10 9 10 10 9 9 9 11 7 5 3 6 5 9 12 14 11 9 9 9 8
7 3 7 10 9 11 19 18 19 22 16 11 7 6 1 11 9 9 10 10 10 9 10 9 8 8 9 10 10 12 9 10 9 9 9 11 9 7 6 8 7 7 7 7
11 7 13 11 11 16 18 17 19 19 19 17 14 15 11 7 10 11 11 11 11 11 10 11 9 10 10 10 10 11 13 10 10 11 11 11 8 6 7 6 6 7 6 6
9 6 15 8 9 6 9 14 14 19 20 18 17 16 17 12 9 13 13 12 12 11 11 12 14 12 11 13 13 11 11 11 10 9 12 11 10 9 10 12 10 7 8 8
8 16 13 17 16 20 16 10 10 11 16 19 18 18 18 16 9 9 12 13 12 12 12 13 14 15 14 14 12 12 10 10 10 10 10 11 9 9 9 9 5 9 9 5
13 16 18 17 18 19 14 16 16 11 12 17 19 17 17 19 8 12 13 15 14 14 13 14 14 15 15 15 16 12 8 6 8 9 8 8 9 7 7 7 6 9 11 10
17 17 21 21 19 20 20 18 17 17 15 14 17 15 16 18 13 15 14 15 15 14 14 14 14 14 14 15 14 14 14 11 9 7 9 8 9 10 8 11 10 12 13 12
17 17 20 21 18 18 17 17 17 18 18 16 12 14 15 15 19 16 15 15 15 15 14 14 14 14 14 14 15 15 13 11 11 11 10 10 10 11 11 11 12 12 11 8
17 19 19 19 21 20 19 20 19 16 17 15 11 14 14 19 19 10 12 16 15 13 15 14 14 14 14 15 15 13 13 14 11 11 11 12 11 11 11 12 11 9 9 13
18 15 15 14 16 16 17 17 16 17 16 16 12 11 14 18 18 14 6 17 14 13 14 14 14 14 15 14 14 12 11 13 13 12 12 11 12 12 12 11 11 11 11 11
16 17 16 18 16 16 16 16 15 16 11 10 9 11 15 16 17 13 7 13 12 13 12 11 12 15 14 15 15 13 12 11 10 13 13 13 12 10 12 11 12 12 11 12
16 17 16 17 17 16 13 11 12 12 10 11 10 12 13 16 10 5 8 15 16 12 16 18 17 8 10 11 13 12 11 12 12 11 12 12 12 13 11 10 13 15 14 12
18 17 17 18 19 21 13 11 10 11 13 9 10 9 14 17 16 19 19 19 17 9 12 16 15 14 16 17 14 7 10 8 9 13 4 4 13 12 13 14 14 13 13 14
17 16 16 17 16 19 17 14 13 13 15 18 17 19 17 17 21 17 18 14 17 16 16 19 14 12 8 11 11 10 8 10 13 13 12 11 17 22 16 13 14 15 15 14
13 13 15 15 15 16 16 15 16 18 19 19 18 16 16 14 14 17 17 11 8 13 12 11 10 14 11 15 11 10 11 11 10 10 8 9 6 7 12 10 5 13 14 13
11 11 12 14 13 13 15 16 16 17 18 16 14 14 14 11 10 13 13 12 10 13 11 10 11 14 14 11 10 10 11 13 12 11 10 10 9 10 7 7 7 13 13 9
11 12 12 11 13 14 16 15 16 16 16 17 16 16 13 10 11 10 10 8 9 13 13 13 13 13 14 11 11 13 13 12 11 10 10 13 10 11 12 11 10 10 10 10
11 12 12 12 12 9 13 13 13 14 14 15 14 13 14 11 11 9 9 11 10 11 12 11 13 15 12 12 12 12 11 11 11 11 11 10 11 11 11 11 11 11 11 10
9 8 8 12 10 8 8 8 8 7 8 9 8 9 9 8 8 8 9 9 12 12 12 12 12 11 10 10 10 11 11 10 10 9 10 9 10 9 10 9 9 9 9 8
8 7 8 8 8 7 6 7 9 10 10 11 11 11 11 10 9 10 10 11 10 10 9 9 9 9 9 9 9 9 8 7 9 8 9 9 9 9 9 9 8 8 8 7
Wind_Direction
270 274 277 277 269 260 234 247 261 280 291 298 302 232 229 237 226 215 217 229 233 242 245 138 203 198 197 199 126 25 25 121 132 141 143 137 132 131 135 131 128 122 119 115
278 276 278 266 259 260 265 264 253 259 262 264 269 268 290 254 245 226 232 245 240 233 237 181 221 204 198 200 160 111 81 54 45 43 25 169 161 170 164 177 171 163 154 152
265 269 265 265 258 260 258 249 251 257 263 276 256 229 234 246 216 229 247 243 240 243 207 198 183 205 216 174 166 137 121 113 104 131 112 92 192 217 226 212 186 176 171 168
265 269 266 264 248 286 303 301 278 252 247 259 274 262 227 211 238 220 212 228 230 237 220 152 157 184 190 177 174 168 164 185 182 189 173 174 175 110 33 300 206 173 177 173
272 262 269 260 209 228 254 264 265 277 263 252 279 291 257 224 231 220 236 225 242 240 171 177 173 175 193 179 175 188 195 212 223 188 194 182 183 191 92 8 8 100 104 144
262 266 269 270 282 330 272 257 279 289 284 287 247 215 285 111 143 181 187 200 209 196 147 171 174 173 183 172 186 207 215 226 236 168 195 166 182 183 138 243 154 57 42 200
250 269 300 350 337 215 240 293 358 344 305 254 273 44 111 107 160 176 183 200 200 181 176 177 189 178 192 186 197 194 213 220 242 118 243 159 174 181 191 207 192 190 189 204
249 271 249 3 3 359 347 357 6 345 268 42 331 288 196 212 205 183 189 195 201 194 204 160 182 201 195 190 200 192 187 193 157 167 190 224 197 186 193 199 190 192 197 194
22 11 14 39 47 3 357 360 356 335 339 325 310 277 289 279 196 196 207 197 190 212 200 178 185 208 207 199 171 173 194 191 186 178 218 191 220 229 223 206 226 209 203 203
337 39 346 331 12 1 345 343 339 327 325 325 307 299 293 215 223 195 201 207 198 205 210 175 182 207 213 185 192 197 190 194 189 189 207 211 208 214 223 211 226 225 216 205
261 266 335 144 334 282 300 309 319 326 321 317 315 302 290 283 196 226 193 203 203 205 203 198 176 205 193 198 209 203 198 192 206 217 210 222 225 218 213 203 194 209 216 210
308 321 303 296 308 309 301 280 274 294 306 308 306 296 291 291 305 218 206 197 201 206 205 206 188 193 191 197 207 222 219 226 206 199 210 206 207 209 197 139 172 182 173 208
276 280 287 293 288 298 306 313 296 264 269 286 296 298 298 289 286 263 228 195 202 203 203 204 202 197 201 205 193 210 234 227 239 222 229 219 192 206 210 197 187 192 192 212
323 327 310 309 309 304 294 301 306 284 268 260 285 287 295 294 282 288 232 206 194 203 204 201 206 209 204 203 211 220 213 217 223 215 254 206 219 194 211 224 209 218 220 218
329 325 307 302 302 287 301 297 291 288 286 275 282 287 297 293 291 237 274 208 196 199 206 204 205 210 211 212 209 219 220 225 209 245 227 234 223 208 228 234 207 223 212 178
325 313 309 306 299 296 290 286 277 279 280 284 281 287 295 299 294 241 238 225 196 198 201 206 210 211 210 209 213 212 221 241 234 216 218 231 230 236 228 228 224 240 234 187
318 308 308 300 299 293 288 284 284 274 274 279 293 290 292 291 289 261 180 259 196 205 205 211 216 219 210 210 209 218 219 214 212 240 247 231 221 227 234 236 229 233 227 235
322 320 315 308 299 290 277 277 275 272 279 321 285 282 285 288 278 250 230 235 205 205 223 223 215 219 219 211 205 220 223 228 197 212 229 237 234 235 228 240 270 255 241 237
333 340 335 322 312 294 282 261 279 303 317 297 283 280 275 280 273 280 24 40 35 34 5 359 348 297 267 232 218 211 219 212 235 221 221 241 239 223 224 237 220 237 255 263
347 358 347 355 6 19 24 14 1 12 350 322 356 15 45 37 41 59 62 58 39 13 359 5 3 10 1 351 347 269 259 239 243 241 177 306 297 243 238 239 251 241 229 241
360 7 3 11 18 28 30 32 34 39 31 49 45 42 49 46 43 44 46 41 19 14 22 19 15 5 3 343 356 324 279 260 256 256 250 220 204 234 252 258 239 225 238 248
12 9 14 19 29 32 30 35 40 42 44 44 45 44 46 40 52 59 56 47 15 20 33 24 12 6 11 22 19 10 19 4 10 350 303 290 305 315 300 259 285 302 228 217
18 19 29 29 35 41 41 42 45 49 52 50 57 60 61 58 48 53 54 38 43 35 42 33 12 24 30 34 31 24 27 28 14 20 16 10 11 4 4 11 35 36 352 69
26 27 37 38 45 48 48 48 51 49 53 58 57 52 49 57 59 61 65 58 54 55 47 29 24 28 42 46 43 39 34 31 31 26 32 29 33 44 39 43 50 63 78 31
41 41 42 45 47 49 59 54 56 54 55 57 58 59 63 58 59 53 54 67 45 50 53 40 33 31 36 40 41 41 45 40 33 35 32 35 35 42 51 47 51 52 62 57
46 52 56 56 57 57 57 59 65 68 77 78 72 73 72 75 91 85 78 57 57 54 50 48 39 46 47 40 42 44 44 36 42 44 40 37 36 36 42 42 50 55 56 57
59 50 61 57 52 34 52 63 51 45 44 60 60 57 53 60 61 61 48 53 53 51 57 62 54 55 55 53 48 45 41 58 48 42 47 52 52 50 50 56 55 59 62 68